Regional Weather Roundup
Issued by NWS

Home | Current Version | Previous Version | Graphics & Text | Print | Product List | Glossary On
Versions: 1 2 3 4 5 6 7 8 9 10 11 12 13 14 15 16 17 18 19 20 21 22 23 24 25 26 27 28 29 30 31 32 33 34 35 36 37 38 39 40 41 42 43 44 45 46 47 48 49 50
000
ASUS43 KLOT 161906
RWRIL

ILLINOIS REGIONAL WEATHER ROUNDUP
NATIONAL WEATHER SERVICE CHICAGO/ROMEOVILLE IL
200 PM CDT WED APR 16 2014

NOTE: "FAIR" INDICATES FEW OR NO CLOUDS BELOW 12,000 FEET WITH NO
SIGNIFICANT WEATHER AND/OR OBSTRUCTIONS TO VISIBILITY.

* THESE STATIONS ARE NOT UNDER NWS QUALITY CONTROL. THEY ALSO MAY NOT
  REPORT WEATHER SUCH AS PRECIPITATION OR FOG.

ILZ001-002-007-009-015-016-024-162000-
NORTHWEST ILLINOIS

CITY           SKY/WX    TMP DP  RH WIND       PRES   REMARKS
MOLINE         SUNNY     56  26  31 S20G35    30.04F
STERLING*      MOSUNNY   54  30  40 S17G26    30.11F
SAVANNA*       SUNNY     56  27  32 SE24G33   30.07F
$$

ILZ003-004-008-010-011-017-018-162000-
NORTH CENTRAL ILLINOIS

CITY           SKY/WX    TMP DP  RH WIND       PRES   REMARKS
ROCKFORD       CLOUDY    51  29  42 S28G38    30.16F
FREEPORT*      SUNNY     53  33  47 SE29G36   30.12F
ROCHELLE*      MOSUNNY   50  33  51 S30       30.15F
DE KALB*       PTSUNNY   47  30  51 S26G36    30.18F
$$

ILZ005-006-012>014-019>023-162000-
NORTHEAST ILLINOIS

CITY           SKY/WX    TMP DP  RH WIND       PRES   REMARKS
CHICAGO-OHARE  PTSUNNY   49  25  39 S23G30    30.21F
CHICAGO-MIDWAY CLOUDY    49  25  39 SE20G29   30.23F
AURORA         PTSUNNY   50  28  42 S24G36    30.19F
LANSING*       SUNNY     49  26  42 SE20      30.25F
WAUKEGAN       MOSUNNY   42  26  53 SE21G32   30.21F
DUPAGE AIRPORT MOSUNNY   50  27  40 S24G31    30.19F
KANKAKEE*      SUNNY     50  27  40 SE21G28   30.25F
WHEELING       MOSUNNY   49  27  42 S21G28    30.22F
MORRIS*        PTSUNNY   50  23  35 SE23G31   30.20F
NORTHERLY ISL    N/A     47  31  54 SE20        N/A
$$

LMZ740>746-162000-
SOUTHERN LAKE MICHIGAN

STATION/POSITION SKY/WX   TEMP    WIND        PRES    VSBY  WAVE
                          AIR SEA DIR/SP/G                  HT/PER
                          (F)     (DEG/KT/KT) (MB)    (MI)  (FT/S)
WAUKEGAN HARBOR            40     140/ 22/ 25 1024.4F
HARRISON CRIB              43     160/ 17/ 24   N/A
BURNHAM HARBOR             47     140/ 15/ 22   N/A
CALUMET HARBOR             45     170/ 18/ 21 1024.9F
MICHIGAN CITY              45     130/ 15/ 21   N/A
$$

ILZ025>027-034>036-040-047-049-050-058-095>099-162000-
WEST-CENTRAL ILLINOIS

CITY           SKY/WX    TMP DP  RH WIND       PRES   REMARKS
QUINCY         SUNNY     56  26  31 S23G36    30.05F
GALESBURG*     SUNNY     54  31  40 S21G35    30.08F
MACOMB*        SUNNY     55  28  35 S31G38    30.10F
JACKSONVILLE*  SUNNY     55  29  37 S18G29    30.15F
PITTSFIELD*    SUNNY     57  27  31 SE22      30.11F
$$

ILZ028>032-037-038-041>044-048-051>054-059>061-162000-
CENTRAL ILLINOIS

CITY           SKY/WX    TMP DP  RH WIND       PRES   REMARKS
PONTIAC        MOSUNNY   52  30  43 SE24G32   30.20F
BLOOMINGTON    SUNNY     53  27  37 S25G37    30.19F
DECATUR        SUNNY     52  29  41 SE22G28   30.22F
PEORIA         MOSUNNY   54  28  36 S29G38    30.15F
LACON*         MOSUNNY   53  30  41 S18G32    30.14F
LINCOLN*       SUNNY     53  30  40 SE23G30   30.18F
SPRINGFIELD    SUNNY     55  28  35 S26G32    30.18F
TAYLORVILLE    SUNNY     50  32  50 SE20G25   30.20F
$$

ILZ033-039-045-046-055>057-062-063-162000-
EAST-CENTRAL ILLINOIS

CITY           SKY/WX    TMP DP  RH WIND       PRES   REMARKS
CHAMPAIGN      SUNNY     52  27  38 SE22G32   30.24F
RANTOUL*       SUNNY     51  27  38 SE18G25   30.24F
MATTOON        SUNNY     49  26  41 SE13      30.23F
PARIS*         SUNNY     50  29  44 SE12G24   30.27F
$$

ILZ079-100>102-162000-
SOUTHWEST ILLINOIS

CITY           SKY/WX    TMP DP  RH WIND       PRES   REMARKS
ALTON          MOSUNNY   54  25  32 S22G29    30.18F
BELLEVILLE     MOSUNNY   54  27  35 S21       30.19F
CAHOKIA*       MOSUNNY   53  29  39 S17G29    30.18F
SPARTA*        SUNNY     54  30  40 S14       30.22F
$$

ILZ064>066-069>071-074>076-080>082-084>086-088>090-092>094-162000-
SOUTH-CENTRAL ILLINOIS

CITY           SKY/WX    TMP DP  RH WIND       PRES   REMARKS
CARBONDALE     SUNNY     55  24  30 SE15G23   30.22F
CAIRO*         SUNNY     57  26  30 SE9       30.24F
MARION         PTSUNNY   55  23  28 SE14      30.24F
MT. VERNON     SUNNY     54  25  32 SE12G22   30.25F
CENTRALIA*       N/A     51  25  35 SE9       30.23F
SALEM*         SUNNY     51  30  43 SE10G18   30.24F
METROPOLIS*    SUNNY     54  18  24 E6        30.24F
$$

ILZ067-068-072-073-078-083-087-091-162000-
SOUTHEAST ILLINOIS

CITY           SKY/WX    TMP DP  RH WIND       PRES   REMARKS
FAIRFIELD*     SUNNY     52  28  40 SE15G23   30.26F
HARRISBURG*    SUNNY     52  29  41 E16       30.26F
ROBINSON*      MOSUNNY   52  30  43 SE13G21   30.29F
CARMI*         SUNNY     52  33  47 E17       30.28F
$$

ABBREVIATIONS USED IN REMARKS
   TC - TEMPERATURE IN CELSIUS
  WCI - WIND CHILL INDEX
   HX - HEAT INDEX
  VSB - VISIBILITY
$$




USA.gov is the U.S. government's official web portal to all federal, state and local government web resources and services.